GFSNGP_prec_cloud_180.txt.gz
Cloud_Cover
100 100 100 100 100 100 100 100 100 100 100 100 100 100 100 100 100 100 100 100 95 98 99 71 32 58 88 33 91 100 100 100 100 100 100 100 100 100 100 100 100 100 100 100
100 100 100 100 72 5 97 100 100 100 100 100 100 100 100 100 98 100 100 100 100 96 93 57 100 88 67 100 100 100 100 100 100 100 100 100 100 100 100 100 100 100 55 52
99 100 100 100 79 96 100 100 94 100 47 35 100 100 64 82 100 100 100 100 100 100 100 100 100 100 100 100 100 98 100 100 100 100 100 100 100 100 97 81 36 58 70 15
93 98 100 43 82 85 96 70 92 100 16 92 100 98 9 44 85 100 100 100 100 100 100 100 100 100 100 100 100 100 100 100 97 12 100 100 96 100 88 89 100 100 100 100
100 97 85 78 100 24 10 4 69 14 87 100 100 39 5 57 29 100 100 100 100 100 100 100 100 100 100 100 100 100 100 98 96 98 100 90 100 100 100 100 100 100 100 100
100 100 100 56 65 86 90 95 100 100 100 100 100 67 87 10 24 35 100 100 100 100 100 100 100 100 100 100 100 100 100 100 100 100 100 100 100 100 100 100 100 100 100 100
100 100 94 89 63 88 97 83 99 100 100 100 100 93 26 100 100 74 26 68 100 100 100 100 100 100 100 100 100 100 100 100 100 59 100 100 100 100 100 100 100 100 100 100
100 100 100 100 100 98 98 98 100 100 100 100 60 72 95 75 5 70 99 74 85 100 100 100 100 100 100 100 100 100 100 100 100 100 100 100 100 100 100 100 100 100 100 100
100 100 100 100 100 95 78 100 100 100 100 100 100 100 100 100 100 100 98 75 32 62 100 100 100 100 100 100 100 100 100 100 100 100 100 100 100 100 100 100 100 100 100 100
100 99 100 93 72 57 97 95 97 99 100 100 100 100 100 100 100 100 100 100 82 100 99 100 100 100 100 100 100 100 100 100 100 100 100 100 100 100 100 100 100 100 100 100
78 31 2 1 0 0 0 5 5 66 100 100 100 100 100 100 100 100 100 100 100 100 100 100 100 100 100 100 100 100 100 100 100 100 100 100 100 100 100 100 96 100 100 100
0 0 1 0 0 2 46 12 9 5 5 48 100 100 100 100 100 100 100 100 100 100 100 100 100 100 100 100 100 100 100 100 100 100 100 100 100 100 100 100 100 100 99 100
0 0 3 5 5 12 95 85 70 90 71 26 48 92 100 100 100 100 100 100 100 100 100 100 100 100 100 100 100 100 100 100 100 100 100 100 100 100 100 100 100 100 100 98
0 5 5 5 9 88 100 21 5 5 78 99 99 98 81 15 74 97 100 100 100 100 100 100 100 100 100 100 100 100 100 100 100 100 100 100 100 100 100 100 100 100 95 98
5 23 59 70 42 34 100 87 69 67 71 71 100 99 97 98 61 8 94 100 100 100 100 100 100 100 100 100 100 100 100 100 100 100 100 100 100 100 100 100 100 99 100 98
100 89 8 74 50 77 100 86 94 99 100 100 100 86 64 68 66 57 48 96 99 34 100 100 100 100 100 100 100 100 100 100 100 100 100 100 100 100 100 100 87 96 100 100
100 100 11 7 93 100 100 100 100 100 100 100 98 100 100 100 100 80 90 89 9 5 16 100 100 100 100 100 100 100 100 100 100 100 100 100 100 100 100 83 100 98 100 100
100 100 100 100 100 100 100 100 100 100 100 100 100 100 100 100 100 100 100 99 79 100 99 84 99 100 100 100 100 100 100 100 100 100 100 100 100 100 100 100 83 93 100 100
100 100 100 100 100 100 100 100 100 100 100 100 100 100 100 100 100 100 100 100 100 100 100 100 100 100 100 100 100 100 100 100 100 96 100 100 100 100 100 100 90 100 100 100
100 100 100 100 100 100 100 100 100 100 100 100 100 100 100 100 100 100 100 100 100 100 100 100 100 100 100 100 100 100 100 100 100 77 100 100 99 100 100 100 100 100 100 100
100 100 100 100 100 100 100 100 100 100 100 100 100 100 100 100 100 100 100 100 100 100 100 100 100 100 100 100 100 100 100 100 99 100 100 100 100 100 100 100 100 100 100 100
99 92 100 100 100 100 100 98 100 100 100 100 100 100 100 100 100 100 100 100 100 100 100 100 100 100 100 100 100 100 100 100 100 100 100 100 100 100 100 100 100 100 100 100
82 95 100 100 100 100 100 89 100 100 100 100 100 100 100 100 100 100 100 100 100 100 100 100 100 100 100 100 100 100 100 100 100 100 100 100 100 100 100 100 100 100 100 100
100 98 58 66 48 48 37 38 73 97 100 100 100 100 100 100 100 100 100 100 100 100 100 100 100 100 100 100 100 100 100 100 100 100 100 100 100 100 100 100 100 100 100 100
100 100 100 78 77 87 76 62 56 100 100 100 100 100 100 100 100 100 100 100 100 100 100 100 100 100 100 100 100 100 100 100 100 100 100 100 100 100 100 100 100 100 100 100
100 100 100 99 85 88 90 92 98 58 86 96 100 100 100 100 100 100 100 100 100 100 100 100 100 100 100 100 100 100 100 100 99 100 100 100 100 100 100 100 100 100 100 100
13 40 10 23 96 93 94 79 100 96 99 100 93 100 100 100 96 100 100 100 100 100 100 100 100 100 100 100 100 100 100 100 100 100 100 100 100 100 100 100 100 100 100 100

GFSNGP_prec_cloud_183.txt.gz
Cloud_Cover
100 100 100 100 100 77 100 100 100 100 100 90 100 100 100 100 100 100 100 100 100 100 100 100 100 100 75 48 62 53 100 98 100 100 100 100 100 100 100 100 100 100 100 100
46 59 100 100 100 100 100 100 100 100 100 100 100 100 100 100 100 100 100 100 100 100 100 100 100 100 100 100 95 100 100 100 100 100 100 100 100 100 100 100 100 84 99 100
78 31 84 100 11 82 92 82 100 100 13 8 65 90 99 100 100 100 100 97 82 100 100 100 100 100 100 94 94 90 100 100 100 100 100 100 100 100 100 97 100 36 25 41
100 100 100 24 92 100 100 100 100 98 80 76 39 46 92 100 100 92 100 90 98 92 91 100 100 97 100 100 100 100 100 100 100 100 100 100 100 100 98 68 90 98 100 98
100 100 100 100 100 99 100 100 95 100 100 74 13 7 82 100 75 44 80 76 88 52 89 100 100 100 100 100 100 100 100 100 100 100 100 100 100 100 100 100 100 100 100 100
100 100 100 99 100 100 100 100 66 16 58 47 75 5 84 100 13 5 24 17 45 94 72 73 100 100 100 100 100 100 100 100 100 100 100 100 100 100 100 100 100 100 100 100
100 100 100 100 95 99 100 88 97 15 5 6 9 65 98 52 42 90 90 72 63 92 76 69 83 100 100 100 100 100 100 100 100 100 100 100 100 100 100 100 100 100 100 100
100 100 100 100 78 51 78 100 100 100 100 100 100 100 100 100 100 100 100 100 100 100 100 100 100 100 100 100 100 100 100 100 100 100 100 100 100 100 100 100 100 100 100 100
100 100 100 100 100 92 51 63 82 99 61 100 100 100 100 100 100 100 100 100 100 100 100 92 9 10 8 97 100 100 100 100 100 100 100 100 100 100 100 100 100 100 100 100
100 100 100 100 100 95 92 18 51 31 98 100 27 66 85 72 100 98 100 100 100 100 100 100 93 100 100 100 100 100 100 100 100 100 100 100 100 100 100 100 100 100 100 100
90 100 100 99 100 100 75 59 89 74 8 5 6 6 5 10 20 100 100 100 100 98 100 100 100 100 100 100 100 100 100 100 100 100 100 100 100 100 100 100 100 100 100 100
99 65 90 27 77 18 37 42 68 100 60 87 100 94 96 100 47 9 100 100 100 100 44 100 100 100 100 100 100 100 100 100 100 100 100 100 100 100 100 100 100 100 99 100
5 0 0 0 0 16 91 100 100 98 100 100 89 100 100 100 100 100 76 100 100 100 14 100 100 100 100 100 100 100 100 100 100 100 100 100 100 100 100 100 100 85 100 100
4 2 1 5 83 100 100 100 44 99 99 100 93 75 89 100 86 100 100 100 100 100 100 100 100 100 100 100 100 100 100 100 100 100 100 100 100 100 100 100 100 100 100 100
0 3 6 85 100 100 100 97 92 33 71 28 22 67 99 97 92 100 100 100 100 100 94 100 100 100 100 100 100 100 100 100 100 100 100 100 100 100 100 100 100 100 100 100
6 44 99 100 88 6 9 10 89 81 77 97 78 91 99 100 97 78 49 36 13 20 86 100 100 100 100 100 100 100 100 100 100 100 100 100 100 100 100 100 100 100 100 100
14 84 97 27 5 5 87 100 100 100 100 100 100 100 100 100 100 100 100 98 100 53 5 10 94 100 100 100 100 100 100 100 100 100 100 100 100 100 100 100 100 100 100 100
29 12 43 29 66 99 75 100 100 100 100 100 100 100 100 100 100 100 100 100 100 100 88 70 93 100 100 100 100 100 100 100 100 100 100 100 100 100 100 100 100 100 100 100
99 100 90 95 82 100 100 100 100 100 100 100 100 100 100 100 100 100 100 100 100 100 96 100 99 100 100 100 100 100 100 100 100 100 100 100 100 100 100 97 100 100 100 100
100 100 100 100 100 100 100 100 100 100 100 100 100 100 100 100 100 100 100 100 100 100 100 100 100 100 100 100 100 100 100 100 100 100 100 100 100 100 100 100 100 100 100 99
81 82 100 52 95 100 100 100 100 100 100 100 100 100 100 100 100 100 100 100 100 100 100 100 100 100 100 100 100 100 100 100 100 100 100 100 100 100 100 100 100 100 100 98
63 86 100 100 100 96 100 100 100 100 100 100 100 100 100 100 100 100 100 100 100 100 100 100 100 100 100 100 100 100 100 100 100 100 100 100 100 100 100 100 100 100 100 100
100 81 100 100 99 63 85 51 89 92 100 100 100 100 100 100 100 100 100 100 100 100 100 100 100 100 100 100 100 100 100 100 100 100 100 100 100 100 100 100 100 100 100 100
100 100 99 79 74 67 68 66 57 78 87 100 100 100 100 100 100 100 100 100 100 100 100 100 100 100 100 100 100 100 100 100 100 100 100 100 100 100 100 100 100 100 100 100
100 100 99 89 86 90 86 74 50 67 69 100 100 100 100 100 100 100 100 100 100 100 100 100 100 100 100 100 100 100 100 100 100 100 100 100 100 100 100 100 100 100 100 100
100 92 65 100 100 93 99 99 91 50 99 100 99 100 100 100 100 100 100 100 100 100 100 100 100 100 100 100 100 100 100 100 100 100 100 100 100 100 100 100 100 100 100 100
84 70 46 17 86 78 45 80 99 100 81 100 87 100 100 98 93 99 84 100 100 100 100 100 100 100 100 100 100 100 100 100 100 100 100 100 100 100 100 100 100 100 100 100

GFSNGP_prec_cloud_186.txt.gz
Cloud_Cover
54 91 100 100 100 5 96 100 100 89 100 8 100 100 100 100 100 100 100 100 100 100 100 100 72 100 100 100 100 100 100 100 100 99 100 100 100 100 100 100 100 100 100 100
50 89 100 100 92 6 100 100 100 79 38 98 100 100 100 100 100 98 100 100 100 98 61 100 100 100 100 100 100 100 100 100 100 100 100 100 99 100 100 95 100 100 100 83
84 98 100 99 56 100 56 5 98 100 37 5 15 16 71 32 100 100 100 100 100 100 100 96 100 100 100 100 100 100 100 100 100 100 100 100 100 100 100 100 100 100 100 100
88 99 100 16 24 98 80 78 43 100 48 56 72 94 100 100 100 100 100 100 100 100 100 100 100 83 96 26 79 100 100 100 100 100 100 100 100 100 100 100 100 100 100 100
100 99 100 100 100 88 99 100 100 100 100 100 100 100 100 100 89 98 97 82 97 85 11 14 74 100 98 98 80 94 100 100 100 100 100 100 100 100 100 100 100 100 100 100
100 100 100 100 100 100 100 100 100 100 100 100 100 100 100 97 100 98 90 12 7 11 6 5 45 94 3 5 100 96 100 100 100 100 100 100 100 100 100 100 100 100 100 100
100 100 100 100 100 100 100 100 100 100 100 100 98 86 72 100 100 93 100 100 98 73 5 5 5 5 0 5 2 31 100 100 100 100 100 100 100 100 100 100 100 100 100 100
100 100 100 100 100 100 100 100 100 100 100 100 82 65 48 66 100 98 97 92 65 63 90 92 96 55 33 26 14 2 86 100 100 100 100 100 100 100 100 100 100 100 100 100
100 100 100 100 98 100 100 100 100 100 100 93 61 95 90 99 100 100 100 100 100 100 100 100 100 100 100 100 99 62 99 100 100 100 100 100 100 100 100 100 100 100 100 100
100 100 100 100 100 100 100 100 39 5 14 16 5 5 5 8 75 86 74 21 35 75 58 94 100 97 100 100 100 100 100 100 100 100 100 100 100 100 100 100 100 100 100 100
100 100 100 100 100 100 100 100 100 54 9 9 5 5 4 4 5 5 5 5 5 5 3 2 77 100 49 3 100 100 100 100 100 100 100 100 100 100 100 100 100 100 100 100
31 5 1 2 25 67 72 93 99 51 34 5 24 28 68 88 49 5 85 41 16 12 5 3 0 6 24 4 91 100 100 100 100 100 100 100 100 100 100 100 100 100 100 100
18 5 17 5 34 12 5 11 9 98 16 5 0 5 5 15 10 5 5 30 41 98 9 5 1 0 0 0 86 86 100 100 100 100 100 100 100 100 100 100 100 100 100 100
80 50 21 51 6 5 39 36 68 8 5 5 5 5 5 10 5 5 12 42 50 58 98 76 96 8 0 1 94 80 100 100 100 100 100 100 100 100 100 100 100 100 100 100
33 23 8 2 5 5 10 52 93 8 5 5 16 59 67 34 21 12 5 80 57 31 48 96 92 57 67 3 86 72 100 100 100 100 100 100 100 100 100 100 100 100 100 100
5 5 5 20 74 49 99 32 5 5 81 99 67 84 100 100 100 100 98 68 75 98 99 100 95 98 78 72 74 95 100 100 100 100 100 100 100 100 100 100 100 100 100 100
48 7 23 4 5 5 5 5 64 100 100 100 100 99 100 100 100 100 100 100 100 100 100 100 100 100 100 78 89 100 100 100 100 100 100 100 100 100 100 100 100 100 100 100
3 0 2 4 4 5 10 86 100 98 96 100 100 100 100 100 100 100 100 100 100 100 100 100 100 100 86 100 92 100 100 100 100 100 100 100 100 100 100 100 100 100 100 100
0 2 21 7 5 24 37 61 100 96 100 100 100 100 100 100 100 100 100 100 100 100 99 100 100 100 100 100 100 100 100 100 100 100 100 100 100 100 100 100 100 100 100 100
7 41 98 20 96 97 100 98 100 74 100 100 100 100 100 100 100 100 100 100 99 100 100 100 100 100 100 100 100 100 100 100 100 100 100 100 100 100 100 100 100 100 100 100
77 100 100 100 100 100 100 100 100 100 100 100 100 100 100 100 100 100 100 100 100 100 100 100 100 100 100 100 100 100 100 100 100 100 100 100 100 100 100 100 100 100 100 100
100 95 100 74 95 100 94 96 57 100 49 100 100 100 100 100 100 100 100 100 100 100 100 100 100 100 100 100 100 100 100 100 100 100 100 100 100 100 100 100 100 100 100 100
100 100 97 100 99 57 74 75 58 19 72 89 100 100 100 100 100 100 100 100 100 100 100 100 100 100 100 100 100 100 100 100 100 100 100 100 100 100 100 100 100 100 100 100
100 82 93 100 57 5 11 72 99 75 100 95 100 100 100 100 100 100 100 100 100 100 100 100 100 100 100 100 100 100 100 100 100 100 100 100 100 100 100 100 100 100 100 100
48 70 33 15 10 18 95 57 20 69 16 43 100 100 100 100 99 100 100 100 100 100 100 100 100 100 100 100 100 100 100 100 100 100 100 100 100 100 100 100 100 100 100 100
15 25 61 85 12 13 60 31 49 22 50 48 25 69 95 79 83 78 95 100 100 100 100 100 100 100 100 100 100 100 100 100 100 100 100 100 100 100 100 100 100 100 100 100
43 33 47 18 48 85 48 5 5 43 100 100 100 34 78 90 100 98 100 100 100 100 100 100 100 100 100 100 100 100 100 100 100 100 100 100 100 100 100 100 100 100 100 100

GFSNGP_prec_cloud_189.txt.gz
Cloud_Cover
100 100 100 100 94 100 100 88 99 20 76 99 100 100 73 100 100 100 100 86 100 100 100 100 100 94 52 10 98 100 100 100 100 100 100 100 100 100 100 100 100 100 100 100
100 100 100 100 99 100 100 100 100 100 9 24 100 100 100 100 100 100 100 33 6 84 100 100 100 96 29 91 100 100 100 100 85 100 100 100 100 100 100 100 100 100 100 100
100 100 100 100 90 100 100 100 100 100 93 78 100 99 62 96 100 100 100 100 60 49 31 100 100 100 100 100 100 100 100 100 100 100 100 100 100 100 100 100 100 100 100 100
100 100 100 96 100 100 100 100 100 100 100 100 100 100 100 100 100 92 100 100 100 100 100 100 100 100 100 100 100 100 100 100 100 100 100 100 100 100 100 100 100 100 100 100
100 100 100 99 100 100 100 100 100 100 100 100 100 100 100 100 100 100 100 100 100 100 100 100 100 100 100 100 100 99 100 96 100 93 100 100 100 100 100 100 100 100 100 100
100 100 100 100 100 100 100 100 100 100 100 100 100 100 100 100 100 100 100 100 100 100 100 100 100 100 100 100 100 100 100 100 100 99 100 100 100 100 100 100 100 100 100 100
100 100 100 100 100 100 100 100 100 100 100 100 100 100 100 100 100 100 100 100 100 100 100 100 66 58 52 44 70 100 63 76 66 63 100 100 100 100 100 100 100 100 100 100
100 100 100 100 100 100 100 100 100 100 100 100 100 100 93 100 100 100 100 100 100 100 100 100 100 100 100 88 100 100 100 83 100 100 100 100 100 100 100 100 100 100 100 100
100 100 100 100 100 100 100 100 100 100 100 100 100 100 100 100 100 100 100 100 100 83 36 17 15 87 83 5 5 58 100 100 100 100 100 100 100 100 100 100 100 100 100 100
100 100 100 100 100 100 100 100 100 100 100 100 100 100 100 100 100 100 88 60 5 5 24 8 5 5 0 0 0 12 100 100 100 100 100 100 100 100 100 100 100 100 100 100
100 100 100 100 100 100 100 100 100 100 100 100 100 100 100 79 20 0 0 0 0 5 5 2 4 5 5 0 0 0 95 100 100 100 100 100 100 100 100 100 100 100 100 100
100 100 100 100 100 100 100 100 100 100 99 100 100 10 2 0 0 0 2 1 0 1 4 3 0 4 44 5 5 0 24 100 100 100 100 100 100 100 100 100 100 100 100 100
100 100 100 100 100 100 100 100 100 96 32 32 14 3 0 0 0 0 5 5 5 5 5 14 5 0 100 12 14 5 3 21 95 100 100 100 100 100 100 100 100 100 100 100
100 100 55 10 42 32 30 5 5 5 5 5 0 0 0 5 5 5 5 5 5 8 11 5 8 38 55 100 77 34 31 62 97 100 100 100 100 100 100 100 100 100 100 100
11 5 5 5 5 5 5 5 5 2 3 2 0 2 5 5 5 20 98 8 13 63 100 59 85 99 48 43 69 62 39 96 100 100 100 100 100 100 100 100 100 100 100 100
18 5 5 5 5 5 4 0 0 2 5 5 5 78 95 100 25 53 98 100 100 100 100 100 100 100 100 100 100 73 74 100 100 100 100 100 100 100 100 100 100 100 100 100
62 80 18 5 5 0 0 0 0 5 5 42 97 100 99 100 100 100 100 100 100 100 100 100 100 100 100 100 98 100 100 100 100 100 100 100 100 100 100 100 100 100 100 100
81 5 5 2 5 5 4 5 5 7 83 100 100 99 100 100 100 100 100 100 100 100 100 88 71 88 93 96 94 100 100 100 100 100 100 100 100 100 100 100 100 100 100 100
9 0 1 0 0 3 5 5 19 100 90 78 100 100 100 100 100 100 100 100 100 100 63 99 75 96 100 100 100 100 100 100 100 100 100 100 100 100 100 100 100 100 100 100
77 6 0 0 2 5 97 89 99 97 70 97 100 100 100 100 100 100 100 100 100 100 100 100 100 100 100 100 100 100 100 100 100 100 100 100 100 100 100 100 100 100 100 100
100 83 35 50 91 100 100 82 100 100 100 100 54 92 100 100 100 100 100 100 100 100 100 100 100 100 100 100 100 100 100 100 100 100 100 100 100 100 100 100 100 100 100 100
98 99 45 64 100 100 100 100 100 100 100 75 100 93 78 100 100 100 100 100 100 100 100 100 100 100 100 100 100 100 100 100 100 100 100 100 100 100 100 100 100 100 100 100
9 6 55 100 100 100 100 96 97 100 100 99 91 59 32 100 100 100 100 100 100 100 100 100 100 100 100 100 100 100 100 100 100 100 100 100 100 100 100 100 100 100 100 100
6 54 100 100 100 98 22 46 53 78 89 68 86 6 94 100 92 98 100 100 100 94 100 100 100 100 100 100 100 100 100 100 100 100 100 100 100 100 100 100 100 100 100 100
5 8 64 69 38 16 19 94 90 6 5 5 5 5 5 99 100 86 79 90 90 100 100 100 100 100 100 100 100 100 100 100 100 100 100 100 100 100 100 100 100 100 100 100
13 5 2 22 5 6 5 12 5 5 5 5 43 89 5 74 100 100 100 100 97 100 100 100 100 100 100 100 100 100 100 100 100 100 100 100 100 100 100 100 100 100 100 100
82 5 56 99 83 69 5 8 15 5 5 70 100 100 88 99 100 100 100 100 100 100 100 100 100 100 100 100 100 100 100 100 100 100 100 100 100 100 100 100 100 100 100 100

GFSNGP_prec_cloud_192.txt.gz
Cloud_Cover
100 100 100 100 100 100 100 88 46 9 68 91 92 100 100 93 84 93 46 25 59 57 38 86 100 100 100 98 97 65 69 90 100 100 100 100 100 100 100 100 100 100 100 100
100 100 100 100 100 100 100 71 85 80 96 88 93 100 100 100 100 100 100 100 100 100 100 100 100 100 100 100 100 100 100 100 100 100 100 100 100 100 100 100 100 100 100 100
100 100 100 100 89 100 65 98 98 73 7 80 100 100 100 100 100 100 100 100 100 100 100 100 99 98 100 100 100 100 100 100 100 100 100 100 100 100 100 100 100 100 100 100
100 100 100 100 100 100 100 100 100 100 100 100 100 100 100 100 100 100 100 100 100 100 100 100 100 100 98 100 100 100 100 100 100 100 100 100 100 100 100 100 100 100 100 100
100 100 100 100 100 100 100 100 100 100 100 100 100 100 100 100 100 100 100 100 100 100 92 64 100 100 100 100 100 100 100 100 100 100 100 100 100 100 100 100 100 100 100 100
100 100 100 100 100 100 100 100 100 100 100 100 100 100 100 100 100 100 100 100 100 100 100 100 100 100 100 100 100 100 100 100 100 100 100 100 100 100 100 100 100 100 100 100
100 100 100 100 100 100 100 100 100 100 100 100 100 100 100 100 100 97 98 100 100 97 100 100 100 100 100 100 100 100 100 100 100 100 100 100 100 100 100 100 100 100 100 100
100 100 98 100 100 100 94 100 100 100 100 100 100 100 100 100 100 100 100 100 100 100 100 100 100 100 100 100 100 26 9 91 92 100 100 97 100 100 100 100 100 100 100 100
100 100 100 100 93 77 76 100 100 100 100 100 100 100 100 100 100 100 100 100 100 100 100 100 100 100 99 15 0 0 0 0 18 29 20 24 98 100 100 100 100 100 100 100
98 100 100 100 100 100 100 100 100 100 100 100 100 100 100 100 100 100 100 100 100 100 100 100 84 38 1 0 0 0 0 3 96 100 100 100 100 100 100 100 100 100 100 100
100 100 100 100 100 100 100 100 100 100 100 100 100 100 100 100 100 100 100 100 100 100 88 8 4 0 0 0 0 0 0 7 48 100 100 100 100 100 100 100 100 100 100 100
100 100 100 100 100 100 100 100 100 100 100 100 100 100 100 100 100 100 100 100 98 20 5 1 0 1 4 1 5 4 0 3 84 91 100 100 100 100 100 100 100 100 100 100
100 100 100 100 100 100 100 100 100 100 100 100 100 100 100 100 100 100 21 7 5 1 0 5 5 5 5 5 5 6 15 5 35 90 84 100 100 100 100 100 100 100 100 100
100 100 100 100 100 100 100 100 100 100 100 100 100 100 100 100 97 79 31 5 3 5 5 13 47 26 5 5 5 5 55 91 48 13 94 100 100 100 100 100 100 100 100 100
100 100 100 100 100 100 100 100 100 100 100 97 75 22 8 5 5 5 5 5 15 71 50 100 100 100 100 98 84 37 39 100 100 95 100 100 100 100 100 100 100 100 100 100
100 100 94 83 60 56 58 44 29 6 5 5 4 4 5 5 7 18 86 99 100 100 100 100 100 100 100 93 100 100 96 100 100 100 100 100 100 100 100 100 100 100 100 100
5 5 5 4 2 0 2 41 87 70 14 5 5 5 6 94 100 100 100 100 100 100 100 100 100 73 99 100 100 100 100 100 100 100 100 100 100 100 100 100 100 100 100 100
17 5 5 5 30 96 87 57 8 5 5 5 5 35 100 100 100 100 100 100 100 100 100 100 100 100 100 100 100 100 100 100 97 100 100 100 100 100 100 100 100 100 100 100
16 47 28 99 62 25 5 5 5 5 5 9 5 20 58 100 100 100 100 100 100 100 98 100 100 100 100 100 100 100 100 100 100 100 100 100 100 100 100 100 100 100 100 100
4 1 0 1 13 4 5 13 14 37 80 100 99 100 82 99 98 100 100 100 98 100 100 100 100 100 100 100 100 100 100 100 100 100 100 100 100 100 100 100 100 100 100 100
99 76 100 100 97 48 15 5 6 94 80 100 100 100 87 76 46 100 100 100 42 100 100 100 100 100 100 100 100 100 100 100 100 100 100 100 100 100 100 100 100 100 100 100
100 100 100 100 100 60 11 12 59 100 100 100 100 100 100 53 5 88 99 97 100 100 100 100 100 100 100 100 100 100 100 100 100 100 100 100 100 100 100 100 100 100 100 100
100 100 100 100 72 5 31 51 100 100 100 100 100 100 60 20 44 95 94 86 100 100 85 100 100 100 100 100 100 100 100 100 100 100 100 100 100 100 100 100 100 100 100 100
100 100 100 52 5 6 57 99 100 100 100 96 69 29 54 99 68 58 100 100 100 100 92 100 100 100 100 100 100 100 100 100 100 100 100 100 100 100 100 100 100 100 100 100
100 73 5 5 12 97 94 88 5 6 5 5 5 5 5 26 100 100 100 100 100 100 100 100 100 100 100 100 100 100 100 100 100 100 100 100 100 100 100 100 100 100 100 100
5 5 5 5 5 5 5 5 5 5 5 5 5 5 5 28 98 100 100 100 100 100 100 91 100 100 100 100 100 100 100 100 100 100 100 100 100 100 100 100 100 100 100 100
7 25 5 25 23 5 5 8 5 5 5 14 5 5 58 67 99 100 100 100 100 90 100 100 100 100 100 100 100 100 100 100 100 100 100 100 100 100 100 100 100 100 100 100

GFSNGP_prec_cloud_195.txt.gz
Cloud_Cover
100 93 94 100 100 74 20 99 39 56 43 37 98 99 96 67 70 15 92 82 40 10 87 100 100 100 95 92 100 96 100 95 91 100 100 100 100 100 100 100 100 100 100 100
100 100 100 98 100 44 28 78 94 92 100 100 100 100 46 67 81 88 91 55 82 84 100 99 96 100 100 100 100 100 100 100 74 100 100 100 100 100 100 100 100 100 100 100
100 100 100 100 16 40 43 100 54 98 100 100 100 100 100 100 100 79 27 94 91 100 100 99 55 5 8 5 6 5 36 37 47 100 100 100 100 100 100 100 100 100 100 100
100 100 100 80 63 34 85 100 100 97 100 100 100 100 100 100 100 100 100 100 100 100 100 100 87 27 32 8 52 81 66 85 100 99 100 100 100 100 100 100 100 100 100 100
100 100 100 91 20 60 43 94 16 71 100 100 100 100 100 100 100 100 100 100 100 100 100 100 99 98 100 100 100 100 100 100 100 100 100 100 100 100 100 100 100 100 100 100
100 100 88 77 99 100 100 100 99 100 100 100 100 100 100 100 100 100 100 100 100 100 100 100 100 100 100 100 100 100 100 100 100 100 100 100 100 100 100 100 99 100 100 100
100 100 100 100 100 100 93 75 100 100 100 100 100 100 100 100 100 100 100 100 100 100 100 100 100 100 100 99 100 100 100 100 100 100 100 100 100 98 100 100 100 100 100 100
100 100 100 100 100 100 100 100 100 100 100 100 100 100 100 100 100 100 100 100 100 100 100 100 100 100 100 100 100 100 100 100 100 100 100 88 25 64 100 100 100 100 100 100
100 100 100 100 100 100 100 100 100 100 100 100 100 100 100 100 100 100 100 100 80 34 52 100 100 100 100 100 100 100 100 100 100 92 8 64 21 24 25 66 100 100 100 100
100 100 100 100 100 100 100 100 100 100 100 100 100 100 100 100 99 100 96 64 30 71 100 100 100 100 100 100 100 100 100 98 9 0 0 68 100 100 100 100 100 100 100 100
100 100 100 100 100 100 100 93 100 98 100 100 100 100 100 100 100 100 100 100 100 100 100 100 100 100 100 100 100 68 1 3 1 0 7 99 97 40 93 99 82 100 100 100
100 100 100 100 100 100 100 100 98 100 100 100 100 100 100 100 100 100 100 100 100 100 100 100 100 100 100 56 5 5 5 5 5 5 4 92 96 87 84 92 90 58 98 100
100 100 100 100 100 100 100 100 100 100 100 100 100 100 100 100 100 100 100 100 100 100 100 100 100 43 5 5 36 74 79 47 44 38 44 100 100 100 100 56 95 100 100 100
100 100 100 100 100 100 100 100 100 100 100 100 100 100 100 100 100 100 100 100 100 98 40 5 5 5 5 16 94 100 100 100 100 100 100 93 100 100 100 100 99 63 100 100
100 100 100 100 100 100 100 100 100 100 100 100 100 100 100 100 100 100 100 96 22 5 5 5 23 62 88 100 100 100 100 100 100 100 100 100 100 100 100 100 100 100 100 100
100 100 100 100 100 100 100 100 100 100 100 100 100 100 87 54 26 8 6 5 23 5 5 21 82 98 100 100 100 100 100 100 100 100 100 100 100 100 100 100 100 100 100 100
100 100 100 100 100 100 100 100 100 100 100 98 6 5 5 5 5 5 5 5 5 6 14 49 85 100 100 100 100 100 100 100 97 100 100 100 100 100 100 100 100 100 100 100
100 96 99 91 94 76 49 46 14 34 9 5 7 5 5 5 5 5 5 5 5 5 29 99 100 100 100 100 100 100 100 100 100 100 100 100 100 96 100 100 100 100 100 100
99 100 99 42 47 46 40 20 60 7 5 5 6 40 66 95 24 5 5 30 71 46 44 100 100 100 100 100 100 100 100 100 100 100 100 100 100 100 100 100 100 100 100 100
0 0 0 2 24 84 100 99 20 7 61 51 18 66 57 46 6 5 36 72 72 86 100 100 100 100 100 100 100 100 100 100 100 100 100 100 100 100 100 100 100 100 100 100
5 4 5 5 5 5 5 5 6 22 100 100 75 23 12 93 97 99 99 41 39 94 100 100 100 100 100 100 100 100 100 100 100 100 100 100 100 100 100 100 100 100 100 100
5 6 58 100 17 31 9 5 8 30 60 100 100 90 72 100 100 99 100 58 82 93 100 100 100 100 100 100 100 100 100 100 100 100 100 100 100 100 100 100 100 100 100 100
8 6 36 91 99 100 53 21 49 98 100 100 100 100 100 100 100 100 100 78 75 92 100 100 100 100 100 100 100 100 100 100 100 100 100 100 100 100 100 100 100 100 100 100
5 5 46 100 99 64 23 8 36 61 98 100 100 89 89 76 52 78 100 100 100 100 100 100 100 100 100 100 100 100 100 100 100 100 100 100 100 100 100 100 100 100 100 100
95 96 100 100 95 48 6 5 5 9 6 6 5 5 5 20 93 94 100 100 100 100 100 100 97 100 100 100 100 100 100 100 100 100 100 100 100 100 100 100 100 100 100 100
9 32 84 99 60 5 5 5 6 10 5 19 5 24 6 45 93 100 100 100 100 100 100 100 100 99 100 100 100 100 100 100 100 100 100 100 100 100 100 100 100 100 100 100
98 13 6 6 5 5 5 5 5 6 19 30 53 38 18 75 89 100 100 100 100 100 100 100 100 98 100 100 100 100 100 100 100 100 100 100 100 100 100 100 100 100 100 100